Date,TemperatureHighF,TemperatureAvgF,TemperatureLowF,DewpointHighF,DewpointAvgF,DewpointLowF,HumidityHigh,HumidityAvg,HumidityLow,PressureMaxIn,PressureMinIn,WindSpeedMaxMPH,WindSpeedAvgMPH,GustSpeedMaxMPH,PrecipitationSumIn
2013-1-1,35.0,29.1,16.0,28.0,18.1,8.0,79,64,48,30.21,29.96,3,1,10,0.00
2013-1-2,27.0,16.1,6.0,19.0,7.6,-5.0,84,69,58,30.41,30.19,2,0,9,0.00
2013-1-3,22.0,10.5,2.0,8.0,-0.8,-6.0,75,60,39,30.43,30.28,1,0,7,0.00
2013-1-4,37.0,26.4,13.0,25.0,19.0,7.0,92,74,60,30.28,30.07,3,0,7,0.01
2013-1-5,38.0,30.9,19.0,26.0,21.3,15.0,87,68,47,30.55,30.09,2,0,6,0.01
2013-1-6,41.0,29.6,19.0,30.0,24.4,15.0,92,81,63,30.52,30.21,2,0,5,0.03
2013-1-7,35.0,28.1,17.0,28.0,21.6,13.0,95,78,49,30.69,30.23,2,0,5,0.01
2013-1-8,44.0,30.4,20.0,29.0,24.8,18.0,97,81,53,30.65,30.53,2,0,6,0.00
2013-1-9,42.0,32.6,20.0,35.0,27.2,19.0,96,81,62,30.70,30.26,2,0,6,0.00
2013-1-10,44.0,39.1,28.0,31.0,27.2,24.0,86,63,50,30.82,30.27,5,2,12,0.01
2013-1-11,39.0,31.6,23.0,35.0,27.9,21.0,97,87,69,30.81,30.52,1,0,3,0.14
2013-1-12,41.0,37.7,36.0,40.0,36.7,35.0,98,98,97,30.52,30.42,1,0,2,0.17
2013-1-13,50.0,48.8,47.0,49.0,48.4,47.0,99,98,95,30.30,30.24,2,1,5,0.02
2013-1-14,60.0,49.6,39.0,52.0,43.2,29.0,99,80,47,30.49,30.13,2,1,8,0.01
2013-1-15,41.0,35.0,28.0,30.0,26.9,24.0,91,73,56,30.60,30.48,1,0,3,0.01
2013-1-16,33.0,30.8,28.0,32.0,28.8,25.0,97,92,78,30.54,30.10,0,0,3,0.00
2013-1-17,40.0,31.6,26.0,35.0,26.7,11.0,98,83,49,30.38,30.10,2,0,9,0.21
2013-1-18,27.0,18.9,13.0,13.0,2.5,-5.0,62,49,35,30.74,30.32,2,0,12,0.01
2013-1-19,45.0,34.3,19.0,31.0,21.7,7.0,76,60,47,30.68,30.15,4,1,13,0.04
2013-1-20,52.0,39.5,27.0,33.0,26.1,10.0,78,60,31,30.18,29.78,7,2,16,0.03
2013-1-21,27.0,23.7,19.0,20.0,9.9,1.0,92,57,40,30.37,30.09,3,1,12,0.01
2013-1-22,24.0,18.6,11.0,20.0,10.5,1.0,94,72,41,30.36,30.05,3,0,10,0.00
2013-1-23,13.0,8.2,1.0,1.0,-7.3,-12.0,68,49,32,30.43,30.35,3,0,10,0.00
2013-1-24,17.0,7.4,-1.0,-5.0,-9.4,-13.0,67,47,33,30.51,30.36,3,1,17,0.00
2013-1-25,21.0,13.9,6.0,1.0,-4.1,-8.0,59,45,30,30.59,30.37,2,1,10,0.00
2013-1-26,23.0,15.6,9.0,11.0,3.5,-5.0,88,61,32,30.51,30.30,3,1,8,0.00
2013-1-27,28.0,18.6,12.0,4.0,1.0,-3.0,68,48,26,30.76,30.50,3,1,9,0.00
2013-1-28,29.0,22.2,15.0,22.0,10.3,-1.0,93,63,34,30.76,30.33,1,0,3,0.00
2013-1-29,35.0,28.9,23.0,31.0,26.1,21.0,95,89,81,30.49,30.33,1,0,3,0.03
2013-1-30,60.0,43.9,32.0,57.0,42.7,31.0,99,96,90,30.44,29.72,3,1,15,0.15
2013-1-31,59.0,41.4,30.0,56.0,29.0,16.0,97,62,45,29.81,29.17,6,3,18,0.32
2013-2-1,32.0,27.3,21.0,17.0,11.4,7.0,64,51,38,30.34,29.81,3,2,12,0.01
2013-2-2,28.0,23.0,15.0,13.0,8.0,4.0,66,53,41,30.53,30.33,2,1,8,0.00
2013-2-3,28.0,23.9,18.0,22.0,19.4,12.0,94,83,55,30.34,30.01,1,0,3,0.00
2013-2-4,29.0,23.3,17.0,19.0,11.3,5.0,91,62,40,30.19,29.99,4,1,12,0.00
2013-2-5,29.0,22.1,15.0,20.0,10.8,6.0,83,62,47,30.32,30.19,2,0,5,0.00
2013-2-6,38.0,27.6,20.0,26.0,19.9,11.0,93,74,46,30.58,30.21,2,0,8,0.01
2013-2-7,28.0,20.6,13.0,12.0,1.3,-4.0,66,44,25,30.83,30.58,2,0,7,0.01
2013-2-8,23.0,19.2,16.0,17.0,14.5,3.0,93,84,41,30.80,29.98,3,1,12,0.00
2013-2-9,21.0,17.0,12.0,19.0,15.0,8.0,94,92,84,30.47,29.89,3,1,12,0.00
2013-2-10,37.0,19.7,6.0,11.0,6.1,1.0,84,59,26,30.68,30.47,1,0,3,0.01
2013-2-11,36.0,25.3,12.0,35.0,22.0,5.0,98,87,69,30.64,29.89,1,0,2,0.01
2013-2-12,39.0,34.6,31.0,32.0,30.7,29.0,98,87,73,30.13,29.86,2,0,3,0.21
2013-2-13,42.0,33.2,25.0,29.0,25.4,22.0,91,74,51,30.14,30.00,2,0,8,0.05
2013-2-14,43.0,33.1,26.0,26.0,24.2,21.0,91,71,47,30.27,29.98,2,0,6,0.01
2013-2-15,51.0,36.8,23.0,35.0,29.8,21.0,94,78,51,30.27,30.16,4,0,13,0.01
2013-2-16,40.0,33.9,28.0,33.0,27.6,19.0,96,78,60,30.23,30.01,2,0,6,0.01
2013-2-17,30.0,21.6,16.0,19.0,12.1,3.0,92,68,48,30.01,29.64,5,2,20,0.01
2013-2-18,31.0,21.4,13.0,5.0,2.5,-1.0,62,45,27,30.42,29.93,6,2,22,0.00
2013-2-19,45.0,33.4,20.0,40.0,21.6,5.0,97,64,44,30.44,29.84,2,0,8,0.31
2013-2-20,39.0,32.5,26.0,38.0,23.4,15.0,98,71,51,30.03,29.79,5,1,12,0.29
2013-2-21,30.0,25.5,22.0,17.0,14.7,11.0,77,63,52,30.46,30.02,3,1,13,0.01
2013-2-22,40.0,29.5,18.0,26.0,21.0,15.0,91,72,45,30.68,30.45,4,0,9,0.00
2013-2-23,38.0,33.3,29.0,33.0,29.5,25.0,96,86,76,30.63,30.23,2,0,10,0.00
2013-2-24,36.0,33.0,30.0,35.0,32.0,29.0,98,97,96,30.23,29.99,2,0,7,0.26
2013-2-25,40.0,32.9,28.0,33.0,30.4,27.0,98,91,69,30.52,30.18,1,0,3,0.20
2013-2-26,43.0,33.8,27.0,36.0,30.4,26.0,98,88,70,30.63,30.47,2,0,6,0.06
2013-2-27,40.0,37.1,31.0,39.0,35.6,29.0,98,94,80,30.47,29.85,6,2,15,1.15
2013-2-28,48.0,38.0,33.0,37.0,34.5,32.0,98,88,65,29.91,29.79,2,0,3,0.24
2013-3-1,40.0,35.5,33.0,34.0,31.4,29.0,95,86,73,29.95,29.80,2,0,5,0.00
2013-3-2,43.0,36.2,30.0,32.0,29.2,27.0,92,76,61,29.95,29.88,2,0,5,0.00
2013-3-3,40.0,34.3,30.0,34.0,29.5,27.0,91,83,73,29.92,29.83,2,0,10,0.01
2013-3-4,38.0,33.0,29.0,29.0,25.7,23.0,90,74,62,30.01,29.84,3,1,13,0.01
2013-3-5,45.0,35.1,29.0,35.0,28.6,23.0,96,78,58,30.36,30.01,2,1,7,0.01
2013-3-6,38.0,35.5,32.0,36.0,32.8,30.0,97,90,72,30.43,30.34,7,2,29,0.13
2013-3-7,34.0,31.6,30.0,32.0,29.4,27.0,96,92,85,30.40,30.30,3,1,10,0.04
2013-3-8,39.0,33.1,29.0,32.0,28.5,24.0,97,85,59,30.45,30.25,1,0,3,0.08
2013-3-9,46.0,34.8,24.0,32.0,25.7,20.0,96,71,47,30.65,30.45,2,0,6,0.34
2013-3-10,44.0,32.1,20.0,33.0,28.0,19.0,97,86,65,30.71,30.60,2,0,7,0.01
2013-3-11,52.0,41.3,32.0,40.0,34.6,31.0,95,79,49,30.61,30.42,2,0,7,0.01
2013-3-12,52.0,46.4,41.0,52.0,45.0,39.0,99,95,90,30.43,29.98,3,1,12,0.26
2013-3-13,52.0,43.0,32.0,52.0,34.7,24.0,99,74,44,30.03,29.95,2,1,15,0.27
2013-3-14,37.0,30.4,22.0,24.0,18.9,8.0,87,63,47,30.10,29.96,3,1,9,0.00
2013-3-15,41.0,28.5,18.0,29.0,14.1,6.0,83,56,29,30.14,29.90,5,1,17,0.00
2013-3-16,37.0,31.6,26.0,28.0,17.9,12.0,81,58,36,30.16,29.92,2,1,7,0.00
2013-3-17,37.0,27.5,19.0,18.0,12.6,6.0,85,56,30,30.61,30.17,4,1,12,0.00
2013-3-18,38.0,26.6,13.0,24.0,10.7,3.0,73,53,30,30.76,30.55,2,0,5,0.00
2013-3-19,33.0,31.2,27.0,32.0,29.7,23.0,97,95,68,30.55,29.92,5,1,15,0.01
2013-3-20,37.0,29.6,25.0,29.0,24.5,21.0,95,82,60,30.08,29.97,3,0,12,0.01
2013-3-21,41.0,30.0,19.0,27.0,21.2,16.0,94,73,39,30.08,29.88,2,0,6,0.13
2013-3-22,42.0,32.9,25.0,27.0,22.1,18.0,96,66,41,29.99,29.88,2,1,6,0.10
2013-3-23,42.0,34.2,26.0,25.0,21.8,20.0,80,62,42,30.03,29.89,5,2,14,0.01
2013-3-24,48.0,37.6,28.0,30.0,26.0,23.0,86,64,44,30.08,30.00,3,1,12,0.00
2013-3-25,41.0,34.7,28.0,35.0,30.0,25.0,93,83,74,30.05,29.83,5,1,12,0.00
2013-3-26,51.0,39.5,30.0,30.0,25.1,21.0,88,59,32,30.04,29.83,3,1,12,0.00
2013-3-27,54.0,40.7,28.0,34.0,27.5,23.0,83,62,38,30.14,30.00,3,1,8,0.00
2013-3-28,47.0,40.7,34.0,37.0,34.0,31.0,97,78,56,30.28,30.14,2,0,6,0.04
2013-3-29,58.0,43.7,33.0,39.0,33.6,30.0,90,69,43,30.31,30.23,2,0,6,0.01
2013-3-30,56.0,44.2,33.0,34.0,26.3,19.0,88,54,24,30.36,30.26,3,1,8,0.00
2013-3-31,60.0,43.6,25.0,40.0,25.9,-99.9,86,56,26,30.40,30.05,5,1,12,0.02
2013-4-1,59.0,45.9,34.0,45.0,37.7,14.0,98,75,39,30.05,29.75,4,1,12,0.33
2013-4-2,40.0,33.8,28.0,19.0,14.6,11.0,60,46,33,30.18,30.02,6,2,13,0.01
2013-4-3,46.0,36.5,29.0,18.0,13.2,7.0,59,40,22,30.40,30.17,5,2,12,0.00
2013-4-4,55.0,41.7,27.0,24.0,17.3,13.0,67,40,20,30.56,30.28,5,1,10,0.00
2013-4-5,61.0,46.0,37.0,31.0,27.5,22.0,72,51,24,30.28,29.88,2,1,12,0.00
2013-4-6,45.0,35.8,27.0,23.0,11.9,3.0,63,39,18,30.61,30.13,4,1,14,0.00
2013-4-7,56.0,40.5,23.0,39.0,25.5,12.0,81,57,32,30.62,30.25,5,1,15,0.00
2013-4-8,64.0,51.0,40.0,43.0,39.0,34.0,97,67,34,30.37,30.21,3,1,9,0.00
2013-4-9,68.0,53.4,44.0,52.0,44.3,39.0,94,73,46,30.35,30.11,3,1,9,0.04
2013-4-10,58.0,49.8,44.0,50.0,45.9,42.0,97,87,73,30.26,30.12,2,0,5,0.48
2013-4-11,50.0,45.6,40.0,46.0,39.9,30.0,98,82,52,30.42,30.10,2,0,3,0.46
2013-4-12,41.0,37.1,35.0,37.0,33.4,28.0,97,87,60,30.47,30.09,4,1,12,0.46
2013-4-13,52.0,41.4,34.0,41.0,36.9,33.0,98,86,60,30.20,30.06,2,0,6,0.15
2013-4-14,54.0,44.7,37.0,40.0,34.8,30.0,96,71,43,30.47,30.19,3,1,8,0.01
2013-4-15,55.0,43.4,30.0,39.0,34.2,28.0,95,72,46,30.66,30.47,4,1,12,0.00
2013-4-16,67.0,52.3,38.0,52.0,42.8,36.0,94,72,47,30.67,30.29,5,2,16,0.00
2013-4-17,66.0,57.0,43.0,54.0,38.5,31.0,85,53,28,30.58,30.29,3,1,12,0.00
2013-4-18,61.0,48.9,32.0,43.0,34.2,29.0,90,60,39,30.71,30.42,4,1,12,0.00
2013-4-19,76.0,63.6,52.0,64.0,57.1,43.0,97,80,58,30.42,29.88,5,2,18,0.00
2013-4-20,68.0,53.6,44.0,64.0,42.2,26.0,96,68,38,30.44,29.83,5,2,15,0.38
2013-4-21,54.0,42.1,31.0,31.0,25.1,21.0,85,53,29,30.95,30.45,3,1,10,0.01
2013-4-22,51.0,39.9,28.0,36.0,30.5,24.0,94,72,37,31.06,30.89,4,1,12,0.00
2013-4-23,41.0,38.6,34.0,40.0,36.3,30.0,98,92,74,30.89,30.45,3,0,9,0.07
2013-4-24,74.0,54.7,41.0,55.0,47.2,40.0,98,79,47,30.45,30.03,4,1,12,0.03
2013-4-25,64.0,55.2,42.0,53.0,38.4,28.0,95,57,28,30.53,30.06,3,1,12,0.02
2013-4-26,58.0,46.6,33.0,41.0,35.4,29.0,91,67,43,30.69,30.53,4,1,10,0.02
2013-4-27,65.0,49.6,33.0,42.0,36.9,32.0,98,66,38,30.69,30.55,3,1,8,0.00
2013-4-28,70.0,53.1,35.0,44.0,37.2,-99.9,95,61,33,30.60,30.48,4,1,12,0.00
2013-4-29,70.0,57.2,44.0,50.0,39.6,29.0,87,54,36,30.53,30.43,5,1,13,0.00
2013-4-30,71.0,56.8,41.0,38.0,31.9,24.0,78,42,23,30.62,30.50,5,1,9,0.00
2013-5-1,71.0,53.8,34.0,43.0,35.2,31.0,91,54,28,30.73,30.63,3,1,8,0.00
2013-5-2,78.0,52.3,39.0,49.0,40.9,36.0,93,69,27,30.76,30.62,6,1,13,0.00
2013-5-3,60.0,48.4,38.0,46.0,41.2,36.0,95,77,57,30.80,30.65,4,1,14,0.00
2013-5-4,60.0,47.2,36.0,47.0,38.9,33.0,98,76,42,30.65,30.57,5,1,10,0.00
2013-5-5,63.0,47.0,31.0,47.0,38.5,30.0,99,75,49,30.61,30.52,3,1,9,0.00
2013-5-6,69.0,50.5,33.0,53.0,43.7,32.0,98,81,47,30.57,30.41,3,1,8,0.00
2013-5-7,79.0,59.9,37.0,60.0,50.2,36.0,99,74,37,30.44,30.33,3,1,9,0.00
2013-5-8,74.0,62.6,50.0,64.0,58.1,49.0,98,86,65,30.46,30.31,5,1,12,0.23
2013-5-9,63.0,57.6,55.0,61.0,56.7,54.0,99,97,91,30.31,30.15,1,0,3,0.63
2013-5-10,78.0,62.4,55.0,63.0,55.8,-99.9,99,84,54,30.21,30.14,3,0,7,0.12
2013-5-11,70.0,62.9,56.0,64.0,59.8,55.0,97,90,79,30.14,29.94,3,1,12,0.17
2013-5-12,71.0,60.1,47.0,61.0,52.6,-99.9,99,80,50,30.03,29.79,3,0,7,0.18
2013-5-13,59.0,48.8,38.0,38.0,33.6,30.0,81,57,36,30.28,30.03,3,1,8,0.01
2013-5-14,60.0,48.5,36.0,39.0,34.4,30.0,91,61,34,30.32,30.22,2,0,9,0.00
2013-5-15,68.0,49.8,34.0,52.0,38.7,32.0,95,70,30,30.32,29.95,3,1,10,0.08
2013-5-16,82.0,60.8,46.0,54.0,18.9,-99.9,99,47,24,30.05,29.85,3,1,12,0.16
2013-5-17,70.0,57.0,46.0,47.0,37.5,-99.9,90,61,34,30.46,30.05,3,1,10,0.00
2013-5-18,73.0,56.0,41.0,51.0,45.9,40.0,98,73,32,30.57,30.46,3,0,7,0.00
2013-5-19,68.0,55.7,50.0,56.0,51.6,49.0,98,87,65,30.61,30.49,2,0,6,0.11
2013-5-20,81.0,65.6,53.0,69.0,61.0,52.0,99,87,60,30.49,30.15,1,0,6,0.22
2013-5-21,66.0,57.0,50.0,63.0,55.4,49.0,98,95,88,30.29,30.16,2,0,7,0.04
2013-5-22,59.0,53.2,49.0,57.0,52.2,48.0,99,96,90,30.31,30.14,2,0,3,1.32
2013-5-23,77.0,62.2,52.0,71.0,60.2,51.0,99,93,80,30.20,30.04,2,0,12,0.24
2013-5-24,72.0,62.9,50.0,69.0,61.3,49.0,99,95,86,30.07,29.89,2,0,7,0.83
2013-5-25,52.0,48.0,40.0,51.0,47.3,39.0,99,98,95,30.07,29.95,2,0,8,1.01
2013-5-26,58.0,47.2,39.0,47.0,42.0,38.0,98,84,62,30.34,29.95,3,1,12,0.15
2013-5-27,72.0,55.4,39.0,49.0,42.4,38.0,98,67,33,30.42,30.32,3,1,12,0.01
2013-5-28,72.0,56.9,40.0,52.0,45.1,39.0,98,70,33,30.50,30.41,2,0,6,0.00
2013-5-29,65.0,59.0,50.0,64.0,58.0,49.0,99,97,93,30.44,30.25,1,0,2,0.49
2013-5-30,88.0,72.5,59.0,73.0,65.9,59.0,100,82,48,30.32,30.22,2,0,9,0.22
2013-5-31,94.0,78.5,63.0,73.0,67.7,62.0,99,73,44,30.32,30.14,1,0,7,0.00
2013-6-1,94.0,80.4,67.0,72.0,66.9,61.0,91,67,35,30.18,30.08,2,0,12,0.00
2013-6-2,90.0,86.4,80.0,73.0,71.8,70.0,75,62,52,30.03,29.98,2,2,9,0.00
2013-6-3,79.0,69.2,58.0,70.0,63.8,51.0,98,84,66,30.07,29.97,2,0,7,0.38
2013-6-4,71.0,60.5,50.0,53.0,48.5,44.0,85,66,44,30.35,30.05,3,0,8,0.01
2013-6-5,76.0,60.6,47.0,54.0,49.2,45.0,96,69,38,30.44,30.34,2,0,7,0.00
2013-6-6,71.0,62.4,52.0,60.0,54.1,50.0,95,76,61,30.45,30.37,2,0,6,0.00
2013-6-7,59.0,54.3,52.0,55.0,53.1,51.0,98,96,83,30.37,30.11,2,0,8,1.65
2013-6-8,78.0,61.9,52.0,67.0,59.0,52.0,99,90,68,30.23,29.89,1,0,9,2.04
2013-6-9,78.0,65.8,54.0,63.0,58.3,53.0,99,79,50,30.40,30.23,2,0,6,0.01
2013-6-10,68.0,60.8,53.0,60.0,57.2,52.0,98,89,72,30.46,30.29,1,0,7,0.34
2013-6-11,60.0,56.6,54.0,59.0,55.3,53.0,99,97,89,30.29,29.84,3,0,12,1.68
2013-6-12,68.0,59.9,55.0,62.0,58.1,54.0,99,94,75,30.06,29.81,2,0,10,0.49
2013-6-13,67.0,57.7,51.0,61.0,55.5,50.0,100,93,67,30.06,29.97,1,0,3,0.29
2013-6-14,76.0,60.5,53.0,63.0,56.1,52.0,99,87,53,30.00,29.92,2,0,5,0.79
2013-6-15,78.0,64.6,54.0,57.0,52.9,47.0,97,70,35,30.17,30.00,2,0,8,0.01
2013-6-16,75.0,65.1,52.0,61.0,56.4,50.0,95,75,52,30.17,29.94,2,0,7,0.00
2013-6-17,85.0,68.1,58.0,67.0,61.4,57.0,98,82,48,30.14,30.00,2,0,9,0.09
2013-6-18,73.0,61.5,57.0,65.0,59.7,56.0,99,94,71,30.20,30.12,1,0,3,0.33
2013-6-19,76.0,62.9,53.0,60.0,55.1,50.0,99,79,44,30.39,30.17,2,0,5,0.03
2013-6-20,79.0,62.1,47.0,58.0,51.9,46.0,98,74,42,30.51,30.39,2,0,6,0.00
2013-6-22,85.0,79.6,72.0,70.0,66.1,62.0,76,64,55,30.43,30.33,2,0,9,0.00
2013-6-23,90.0,76.7,64.0,76.0,67.9,60.0,92,75,59,30.38,30.19,2,0,8,0.01
2013-6-24,93.0,79.7,70.0,77.0,71.4,68.0,95,78,50,30.23,30.08,2,0,8,0.01
2013-6-25,90.0,77.9,68.0,77.0,70.5,67.0,98,79,55,30.14,29.93,1,0,6,0.52
2013-6-26,83.0,71.2,62.0,75.0,69.4,61.0,99,95,74,30.10,29.94,1,0,3,1.61
2013-6-27,68.0,62.8,59.0,66.0,62.1,59.0,99,97,90,30.12,30.03,2,0,3,0.20
2013-6-28,82.0,67.2,57.0,76.0,65.5,57.0,100,94,76,30.02,29.72,3,0,9,0.60
2013-6-29,85.0,75.8,71.0,73.0,70.1,67.0,97,84,62,29.93,29.74,2,0,10,0.01
2013-6-30,86.0,76.8,67.0,75.0,70.8,66.0,99,83,64,30.15,29.93,2,0,6,0.00
2013-7-1,80.0,73.6,71.0,75.0,71.6,69.0,99,94,82,30.31,30.15,2,0,13,1.04
2013-7-2,78.0,68.2,59.0,75.0,67.5,58.0,100,97,88,30.47,30.30,2,0,6,0.05
2013-7-3,88.0,73.4,59.0,79.0,69.2,59.0,99,88,70,30.46,30.34,1,0,6,0.01
2013-7-4,92.0,82.5,72.0,81.0,74.9,71.0,98,80,57,30.42,30.29,2,0,6,0.00
2013-7-5,94.0,83.4,74.0,79.0,75.5,72.0,96,78,58,30.39,30.24,2,0,5,0.00
2013-7-6,90.0,81.4,74.0,78.0,74.2,71.0,96,80,60,30.29,30.19,1,0,6,0.00
2013-7-7,91.0,77.6,66.0,79.0,70.7,64.0,95,80,58,30.24,30.12,1,0,3,0.00
2013-7-8,80.0,73.2,64.0,75.0,70.3,63.0,98,91,78,30.32,30.13,2,0,7,0.07
2013-7-9,72.0,67.3,64.0,68.0,65.1,63.0,98,93,84,30.35,30.30,1,0,3,0.07
2013-7-10,83.0,70.6,64.0,78.0,67.0,-99.9,98,92,82,30.34,30.02,1,0,6,0.03
2013-7-11,82.0,74.8,70.0,77.0,73.2,70.0,99,95,79,30.17,29.99,1,0,5,0.44
2013-7-12,78.0,68.9,63.0,70.0,63.0,57.0,100,83,53,30.45,30.17,3,0,8,0.01
2013-7-13,81.0,70.0,62.0,72.0,65.1,60.0,97,85,68,30.56,30.45,2,0,6,0.00
2013-7-14,90.0,77.3,66.0,78.0,72.3,65.0,99,86,61,30.54,30.43,2,0,6,0.00
2013-7-15,92.0,78.4,69.0,78.0,73.3,68.0,99,86,62,30.43,30.31,1,0,3,0.00
2013-7-16,92.0,78.1,68.0,78.0,71.4,66.0,96,81,55,30.40,30.33,1,0,3,0.00
2013-7-17,93.0,80.5,67.0,78.0,72.4,66.0,99,79,54,30.41,30.17,1,0,3,0.00
2013-7-18,90.0,79.8,73.0,77.0,73.6,70.0,96,82,60,30.23,30.17,2,0,5,0.00
2013-7-19,95.0,83.0,71.0,80.0,74.9,70.0,98,79,54,30.17,29.91,2,0,8,0.00
2013-7-20,92.0,80.9,73.0,81.0,72.4,-99.9,94,77,61,30.03,29.87,2,0,5,0.15
2013-7-21,79.0,71.6,64.0,70.0,66.3,63.0,98,84,68,30.24,30.02,2,0,7,0.14
2013-7-22,81.0,71.0,66.0,72.0,67.9,65.0,98,90,72,30.27,30.14,2,0,6,0.00
2013-7-23,76.0,70.0,67.0,75.0,69.3,66.0,99,97,94,30.14,29.78,1,0,3,1.51
2013-7-24,85.0,74.7,65.0,75.0,69.9,56.0,100,86,64,30.20,29.81,2,0,8,0.01
2013-7-25,64.0,60.4,58.0,59.0,55.7,52.0,98,85,75,30.36,30.20,1,0,5,0.30
2013-7-26,70.0,64.2,59.0,68.0,63.6,58.0,99,98,92,30.33,30.17,2,0,5,0.40
2013-7-27,84.0,71.4,59.0,70.0,65.2,59.0,100,82,53,30.29,30.22,1,0,8,0.10
2013-7-28,75.0,68.7,64.0,71.0,66.6,63.0,98,93,85,30.27,30.22,1,0,5,0.00
2013-7-29,82.0,70.4,65.0,75.0,68.4,64.0,99,94,78,30.28,30.20,2,0,6,0.04
2013-7-30,81.0,69.2,59.0,67.0,62.8,59.0,99,82,52,30.33,30.27,2,0,8,0.01
2013-7-31,81.0,69.3,59.0,67.0,61.7,58.0,98,79,50,30.38,30.28,2,0,3,0.01
2013-8-1,81.0,68.0,59.0,68.0,63.6,58.0,99,87,62,30.28,30.13,2,0,6,0.01
2013-8-2,82.0,70.0,64.0,71.0,65.0,61.0,99,86,56,30.12,30.01,1,0,8,0.59
2013-8-3,80.0,69.7,62.0,68.0,63.5,59.0,96,82,58,30.10,30.00,2,0,7,0.01
2013-8-4,79.0,65.7,56.0,65.0,59.5,55.0,98,82,56,30.12,30.01,2,0,5,0.00
2013-8-5,75.0,61.0,53.0,56.0,52.1,45.0,96,75,39,30.29,30.12,2,0,9,0.00
2013-8-6,79.0,61.9,48.0,59.0,52.4,47.0,98,75,40,30.40,30.29,2,0,5,0.00
2013-8-7,80.0,65.6,52.0,64.0,57.7,51.0,99,78,52,30.44,30.35,3,0,7,0.00
2013-8-8,81.0,71.3,62.0,73.0,66.2,56.0,96,84,74,30.37,30.23,2,0,8,0.02
2013-8-9,74.0,72.4,71.0,74.0,71.2,70.0,99,96,90,30.25,29.96,2,0,8,1.58
2013-8-11,79.0,68.7,60.0,63.0,60.2,58.0,96,76,50,30.27,30.23,1,0,3,0.01
2013-8-12,81.0,66.2,56.0,64.0,59.7,55.0,99,82,49,30.27,30.15,1,0,5,0.00
2013-8-13,75.0,66.7,63.0,69.0,63.2,-99.9,98,91,77,30.16,29.93,1,0,3,0.02
2013-8-14,74.0,64.0,58.0,64.0,54.4,-99.9,99,78,53,30.18,29.90,3,0,12,0.01
2013-8-15,76.0,57.5,50.0,59.0,41.1,-99.9,98,74,48,30.35,30.18,2,0,8,0.00
2013-8-16,78.0,62.4,52.0,61.0,53.4,-99.9,98,79,50,30.42,30.35,1,0,3,0.00
2013-8-17,80.0,65.7,54.0,65.0,59.4,53.0,99,82,57,30.53,30.43,1,0,3,0.00
2013-8-18,80.0,66.1,55.0,68.0,59.4,-99.9,99,83,55,30.53,30.32,1,0,3,0.00
2013-8-19,81.0,65.8,58.0,69.0,51.7,-99.9,99,82,62,30.32,30.18,1,0,3,0.00
2013-8-20,85.0,70.7,60.0,70.0,63.3,-99.9,98,82,52,30.32,30.21,1,0,3,0.00
2013-8-21,87.0,72.6,61.0,73.0,66.2,60.0,99,83,55,30.38,30.24,1,0,6,0.00
2013-8-22,87.0,75.8,65.0,73.0,68.6,64.0,95,80,55,30.26,30.04,2,0,8,0.00
2013-8-23,81.0,70.6,58.0,70.0,62.9,54.0,95,78,48,30.37,30.04,2,0,3,0.00
2013-8-24,78.0,62.0,50.0,58.0,52.2,49.0,96,74,38,30.58,30.37,2,0,6,0.00
2013-8-25,82.0,64.3,49.0,63.0,53.4,-99.9,99,73,44,30.62,30.41,1,0,3,0.00
2013-8-26,80.0,71.0,63.0,70.0,64.6,58.0,91,80,68,30.42,30.10,2,0,6,0.00
2013-8-27,85.0,74.1,67.0,72.0,68.6,66.0,97,84,62,30.11,30.06,1,0,5,0.00
2013-8-28,84.0,75.5,65.0,71.0,67.4,64.0,95,77,60,30.23,30.10,1,0,5,0.00
2013-8-29,66.0,64.0,61.0,65.0,61.9,59.0,98,93,87,30.33,30.20,2,0,12,0.00
2013-8-30,83.0,69.4,60.0,71.0,64.6,59.0,96,85,64,30.28,30.04,1,0,3,0.00
2013-8-31,80.0,73.2,68.0,76.0,70.9,67.0,99,93,84,30.08,30.01,1,0,5,0.07
2013-9-1,85.0,74.6,70.0,77.0,70.3,-99.9,99,90,73,30.11,30.01,1,0,8,0.32
2013-9-2,76.0,72.9,71.0,75.0,72.6,71.0,99,98,96,30.10,29.95,1,0,3,0.84
2013-9-3,80.0,71.9,62.0,73.0,69.6,60.0,100,92,76,30.03,29.93,1,0,3,0.14
2013-9-4,80.0,66.6,57.0,66.0,60.1,56.0,99,82,55,30.15,30.03,1,0,6,0.01
2013-9-5,71.0,61.5,49.0,63.0,55.1,47.0,97,81,50,30.41,30.11,1,0,5,0.01
2013-9-6,69.0,54.3,42.0,51.0,46.1,41.0,98,77,42,30.50,30.34,2,0,5,0.01
2013-9-7,79.0,62.0,48.0,61.0,54.1,46.0,96,78,46,30.34,30.08,2,0,5,0.00
2013-9-8,71.0,62.4,48.0,63.0,52.1,-99.9,86,72,48,30.34,29.98,3,0,10,0.00
2013-9-9,69.0,56.1,42.0,53.0,47.0,41.0,98,74,47,30.50,30.34,1,0,7,0.00
2013-9-10,74.0,65.4,55.0,71.0,62.5,51.0,97,91,79,30.40,30.27,2,0,9,0.09
2013-9-11,93.0,79.1,69.0,79.0,73.1,68.0,100,84,57,30.30,30.15,1,0,7,0.03
2013-9-12,84.0,72.4,66.0,78.0,70.2,65.0,99,94,77,30.19,29.92,2,0,5,1.51
2013-9-13,78.0,66.0,57.0,70.0,65.0,56.0,100,97,75,30.00,29.81,2,0,5,2.31
2013-9-14,68.0,59.1,50.0,60.0,55.7,49.0,98,89,71,30.30,29.99,1,0,5,0.08
2013-9-15,69.0,53.3,46.0,56.0,48.6,-99.9,100,89,57,30.42,30.30,0,0,3,0.00
2013-9-16,65.0,56.0,45.0,59.0,52.2,41.0,97,87,75,30.52,30.25,1,0,7,0.01
2013-9-17,64.0,48.7,37.0,49.0,42.4,36.0,97,81,49,30.70,30.52,2,0,7,0.01
2013-9-18,52.0,42.7,40.0,47.0,41.9,39.0,99,98,97,30.59,30.40,0,0,0,0.00
2013-9-19,77.0,57.6,46.0,61.0,52.5,45.0,99,85,50,30.40,30.28,1,0,3,0.00
2013-9-20,55.0,50.6,47.0,55.0,49.9,46.0,100,98,97,30.34,30.29,0,0,0,0.00
2013-9-22,71.0,62.3,52.0,66.0,57.4,48.0,98,85,63,30.07,29.85,2,0,8,0.44
2013-9-23,61.0,50.9,42.0,49.0,44.9,40.0,94,80,60,30.26,30.06,2,0,12,0.01
2013-9-24,64.0,49.0,39.0,51.0,44.0,38.0,99,85,56,30.25,30.09,2,0,8,0.00
2013-9-25,64.0,52.6,42.0,55.0,48.7,41.0,99,88,63,30.25,30.14,1,0,5,0.00
2013-9-26,67.0,55.9,48.0,55.0,50.9,47.0,97,85,58,30.39,30.25,2,0,3,0.00
2013-9-27,66.0,57.2,50.0,57.0,53.5,49.0,98,88,67,30.52,30.39,1,0,3,0.00
2013-9-28,49.0,47.9,47.0,48.0,47.2,46.0,99,98,98,30.55,30.51,0,0,0,0.00
2013-9-29,61.0,50.2,44.0,51.0,47.4,43.0,97,90,70,30.41,30.40,0,0,3,0.00
2013-9-30,68.0,53.2,44.0,55.0,49.3,43.0,99,88,60,30.40,30.24,1,0,3,0.00
2013-10-1,58.0,55.5,47.0,57.0,54.4,46.0,98,96,94,30.24,30.12,0,0,0,0.00
2013-10-2,79.0,63.9,51.0,65.0,58.8,51.0,99,85,59,30.17,30.06,2,0,5,0.00
2013-10-3,77.0,59.2,51.0,59.0,54.6,50.0,99,87,43,30.33,30.18,1,0,3,0.00
2013-10-4,62.0,57.1,49.0,60.0,55.8,48.0,99,96,89,30.35,30.29,0,0,1,0.06
2013-10-5,66.0,59.3,56.0,60.0,56.8,55.0,99,92,77,30.39,30.32,1,0,3,0.01
2013-10-6,57.0,54.7,52.0,56.0,53.8,50.0,99,97,90,30.51,30.38,1,0,5,0.29
2013-10-7,77.0,64.8,55.0,72.0,62.9,55.0,100,94,74,30.42,30.04,4,1,14,0.12
2013-10-8,65.0,54.5,44.0,59.0,48.4,41.0,99,82,54,30.64,30.14,2,0,12,0.03
2013-10-9,62.0,47.8,38.0,50.0,43.5,37.0,99,87,60,30.76,30.64,1,0,6,0.00
2013-10-10,61.0,48.7,39.0,53.0,45.8,38.0,99,91,67,30.65,30.47,1,0,3,0.00
2013-10-11,72.0,54.2,45.0,52.0,47.9,44.0,99,83,39,30.47,30.37,1,0,5,0.00
2013-10-12,57.0,51.3,46.0,55.0,49.0,45.0,99,92,71,30.61,30.34,2,0,6,0.02
2013-10-13,67.0,52.3,42.0,48.0,41.9,-99.9,99,73,45,30.70,30.33,0,0,0,0.02
2013-10-14,62.0,51.1,39.0,52.0,48.3,38.0,97,90,55,30.68,30.27,0,0,1,0.12
2013-10-15,64.0,55.7,49.0,54.0,50.7,48.0,100,84,64,30.47,30.15,0,0,1,0.02
2013-10-16,64.0,58.8,52.0,52.0,49.0,47.0,98,71,53,30.45,29.85,0,0,0,0.01
2013-10-17,59.0,53.2,49.0,52.0,50.1,46.0,96,89,74,29.85,29.73,0,0,0,0.20
2013-10-18,61.0,56.4,49.0,46.0,40.1,34.0,89,54,50,29.88,29.73,0,0,0,0.52
2013-10-19,64.0,52.7,43.0,45.0,39.5,34.0,82,62,39,29.92,29.70,0,0,0,0.01
2013-10-20,55.0,50.2,47.0,47.0,33.7,-99.9,92,57,37,29.98,29.63,0,0,0,0.11
2013-10-21,62.0,49.2,34.0,41.0,36.7,32.0,92,64,42,30.07,29.89,0,0,0,0.01
2013-10-22,55.0,50.4,48.0,44.0,40.5,38.0,86,68,54,30.25,29.74,0,0,0,0.03
2013-10-23,49.0,40.1,32.0,39.0,30.4,27.0,92,70,42,30.04,29.62,0,0,1,0.01
2013-10-24,43.0,39.2,37.0,34.0,29.3,25.0,88,68,48,29.85,29.67,0,0,0,0.12
2013-10-25,42.0,39.4,37.0,33.0,26.0,24.0,86,58,48,30.14,29.85,0,0,0,0.07
2013-10-26,37.0,31.2,28.0,34.0,26.3,24.0,93,82,59,30.11,29.81,0,0,0,0.04
2013-10-27,42.0,39.1,36.0,36.0,29.6,-99.9,92,74,59,30.00,29.74,0,0,0,0.16
2013-10-28,43.0,39.3,38.0,35.0,26.9,-99.9,81,67,59,30.38,29.98,0,0,0,0.05
2013-10-29,38.0,26.0,22.0,21.0,20.1,17.0,91,79,50,30.47,30.36,0,0,0,0.02
2013-10-30,42.0,31.9,24.0,30.0,25.9,20.0,88,78,61,30.37,30.18,0,0,0,0.01
2013-10-31,44.0,33.4,29.0,41.0,30.8,27.0,92,90,82,30.22,29.97,0,0,0,0.02
2013-11-1,68.0,61.8,54.0,58.0,55.3,51.0,100,80,62,29.86,29.27,3,0,12,0.02
2013-11-2,65.0,53.6,44.0,47.0,43.0,39.0,95,69,45,29.94,29.60,1,0,3,0.22
2013-11-3,41.0,20.5,41.0,31.0,-34.5,-99.9,67,34,67,30.39,29.89,2,1,5,0.00
2013-11-4,42.0,31.4,23.0,22.0,17.9,14.0,86,59,37,30.99,30.64,2,0,8,0.00
2013-11-5,49.0,33.6,22.0,34.0,22.9,18.0,85,66,37,30.95,30.44,2,0,5,0.00
2013-11-6,61.0,51.2,32.0,47.0,37.1,28.0,85,59,45,30.54,29.89,3,0,9,0.00
2013-11-7,59.0,55.2,40.0,57.0,46.8,36.0,93,74,59,30.09,29.71,0,0,2,0.12
2013-11-8,38.0,35.5,34.0,35.0,22.8,20.0,90,60,53,30.07,29.82,0,0,0,0.03
2013-11-9,38.0,34.3,30.0,27.0,19.7,-99.9,82,57,47,30.45,29.97,0,0,1,0.01
2013-11-10,51.0,38.2,33.0,44.0,34.1,28.0,98,85,70,30.15,29.67,2,0,3,0.44
2013-11-11,51.0,39.2,33.0,30.0,27.8,25.0,80,64,42,30.29,29.81,1,0,6,0.06
2013-11-12,31.0,25.9,23.0,19.0,14.9,14.0,67,62,60,30.35,30.10,1,0,3,0.01
2013-11-13,30.0,25.0,19.0,19.0,12.3,8.0,70,58,40,30.53,30.03,0,0,1,0.00
2013-11-14,41.0,33.4,27.0,27.0,22.3,18.0,88,64,52,30.04,29.97,0,0,0,0.00
2013-11-15,58.0,36.2,27.0,26.0,23.2,18.0,88,66,22,30.38,30.04,2,0,5,0.00
2013-11-16,58.0,43.5,28.0,31.0,22.2,-99.9,89,51,26,30.59,30.23,0,0,2,0.00
2013-11-17,52.0,40.9,26.0,52.0,36.3,23.0,99,84,67,30.32,29.82,1,0,3,0.11
2013-11-18,57.0,53.0,48.0,54.0,46.9,33.0,99,80,55,30.11,29.44,2,0,5,0.23
2013-11-19,47.0,35.5,28.0,35.0,22.5,15.0,63,59,53,30.54,29.89,3,1,9,0.21
2013-11-21,40.0,26.9,15.0,21.0,16.4,11.0,87,67,35,30.64,30.37,0,0,0,0.00
2013-11-22,43.0,36.2,30.0,42.0,34.5,21.0,98,95,68,30.35,30.01,5,2,10,0.20
2013-11-23,43.0,38.8,36.0,43.0,31.8,-99.9,99,91,90,30.09,30.02,5,1,20,0.05
2013-11-24,25.0,23.7,22.0,8.0,2.9,1.0,51,40,37,30.35,30.17,4,2,12,0.00
2013-11-25,31.0,24.5,19.0,15.0,4.8,-6.0,63,45,21,30.65,30.45,9,4,17,0.00
2013-11-26,35.0,26.7,23.0,27.0,19.1,12.0,94,73,61,30.58,30.28,8,3,14,0.01
2013-11-27,61.0,47.0,34.0,60.0,46.1,33.0,99,97,97,30.35,29.48,6,2,20,1.49
2013-11-28,34.0,30.7,19.0,28.0,20.3,8.0,79,66,42,30.71,29.95,3,2,10,0.10
2013-11-30,21.0,16.9,18.0,16.0,-2.1,-99.9,82,68,73,30.99,30.62,10,5,22,0.00
2013-12-1,35.0,29.1,24.0,34.0,25.5,20.0,97,87,79,30.50,30.38,4,1,8,0.01
2013-12-2,38.0,33.3,29.0,38.0,31.6,28.0,99,93,85,30.27,30.16,2,0,3,0.06
2013-12-3,38.0,31.1,28.0,37.0,29.8,24.0,99,95,84,30.23,30.17,3,0,10,0.05
2013-12-4,40.0,28.8,24.0,30.0,25.5,22.0,96,88,65,30.47,30.22,4,1,10,0.01
2013-12-5,44.0,35.6,24.0,43.0,33.6,22.0,98,92,82,30.51,30.09,13,4,28,0.03
2013-12-6,49.0,44.9,34.0,49.0,44.0,33.0,99,96,87,30.40,30.12,3,0,7,0.11
2013-12-7,34.0,25.2,22.0,34.0,10.5,-99.9,98,78,77,30.73,30.36,3,0,7,0.10
2013-12-8,28.0,23.8,18.0,22.0,17.8,9.0,95,78,56,30.87,30.75,3,0,8,0.00
2013-12-9,37.0,33.8,27.0,36.0,32.7,21.0,98,97,77,30.78,30.17,1,0,3,0.08
2013-12-10,35.0,30.5,24.0,32.0,28.0,15.0,99,90,65,30.24,30.06,1,0,3,0.01
2013-12-11,31.0,24.8,18.0,20.0,16.9,15.0,89,72,57,30.47,30.27,3,1,7,0.00
2013-12-12,10.0,8.6,8.0,7.0,5.0,3.0,88,86,81,30.32,30.22,8,5,14,0.00
2013-12-13,12.0,10.4,10.0,9.0,7.1,4.0,90,87,76,30.24,30.14,9,5,16,0.00
2013-12-14,8.0,4.0,8.0,-2.0,-51.0,-99.9,63,32,63,30.80,30.62,1,0,5,0.00
2013-12-15,17.0,16.6,16.0,14.0,13.5,13.0,90,87,85,29.99,29.82,2,1,10,0.00
2013-12-16,25.0,21.4,17.0,19.0,13.4,8.0,94,72,54,30.41,30.01,0,0,0,0.00
2013-12-17,16.0,5.7,-3.0,14.0,2.7,-6.0,93,87,82,30.58,30.31,5,1,12,0.00
2013-12-18,24.0,17.7,9.0,20.0,14.6,6.0,93,88,77,30.33,30.18,3,1,8,0.00
2013-12-19,31.0,26.1,20.0,26.0,22.6,18.0,92,87,78,30.35,30.17,6,2,12,0.01
2013-12-20,50.0,31.1,27.0,37.0,27.4,24.0,95,87,60,30.35,30.18,1,0,3,0.16
2013-12-21,55.0,42.2,35.0,47.0,37.9,-99.9,98,91,68,30.21,30.03,7,3,14,0.16
2013-12-22,47.0,33.6,31.0,46.0,33.4,31.0,98,98,95,30.32,30.10,3,0,6,0.13
2013-12-23,34.0,31.7,30.0,34.0,31.4,29.0,99,98,98,30.40,30.27,2,0,3,0.01
2013-12-24,35.0,30.3,25.0,35.0,24.7,16.0,99,80,59,30.48,30.34,1,0,7,0.01
2013-12-25,24.0,16.6,10.0,16.0,6.2,0.0,84,63,50,30.86,30.48,2,0,7,0.01
2013-12-26,29.0,21.2,13.0,28.0,18.5,9.0,95,89,78,30.81,30.38,0,0,1,0.00
2013-12-27,33.0,23.8,15.0,25.0,19.5,14.0,96,84,65,30.55,30.48,2,0,6,0.00
2013-12-28,46.0,32.4,22.0,32.0,24.7,-99.9,92,76,56,30.50,30.25,2,0,10,0.11
2013-12-29,41.0,34.7,28.0,36.0,31.1,25.0,98,87,69,30.30,29.73,3,0,5,1.05
2013-12-30,40.0,31.3,15.0,37.0,25.6,7.0,99,80,55,30.47,29.79,5,1,12,0.02
2013-12-31,22.0,14.7,8.0,14.0,4.4,-1.0,88,64,44,30.47,30.33,1,0,3,0.00
2014-1-1,25.0,18.5,12.0,11.0,9.2,6.0,82,67,49,30.69,30.46,2,0,9,0.00
2014-1-2,17.0,7.6,-2.0,13.0,4.5,-5.0,90,86,79,30.67,30.22,2,0,10,0.00